[[{"header":{"parameterUnit":"m.s-1","parameterCategory":1,"la1":30.2991,"la2":30.254,"lo1":-89.0895,"lo2":-89.0444,"dy":0.0017,"dx":0.0017,"nx":28,"ny":28,"refTime":"2023-09-28T09:00:00:Z","depth":0,"parameterNumber":2,"parameterNumberName":"U-component_of_WINDS"},"data":[0,0,0,0,0,0,0,0,0,0,0,0,0,0,0,0,0,0,0,0,0,0,0,0,0,0,0,0,0,0,0,0,0,0,0,0,0,0,0,0,0,0,0,0,0,0,0,0,0,0,0,0,0,0,0,0,0,0,-4.6361,-4.6361,0,-4.637,-4.637,-4.637,-4.6234,-4.6231,-4.6227,-4.6223,-4.6233,-4.6237,-4.624,0,0,0,0,0,0,0,0,0,0,0,0,0,-4.6227,-4.623,-4.6361,-4.6361,-4.6361,-4.637,-4.637,-4.637,-4.6235,-4.6231,-4.6226,-4.6222,-4.6232,-4.6236,-4.6241,0,0,0,0,0,0,0,0,0,0,0,0,0,-4.6265,-4.6231,-4.6361,-4.6295,-4.6289,-4.637,-4.637,-4.637,-4.6236,-4.623,-4.6225,-4.622,-4.623,-4.6236,-4.6241,-4.6386,0,0,-4.6258,-4.6261,0,0,0,0,0,0,0,0,-4.6263,-4.6271,-4.6305,-4.63,-4.6293,-4.6295,-4.6326,-4.6376,-4.6237,-4.6256,-4.6223,-4.6217,-4.6258,-4.6261,-4.6275,-4.6387,-4.6387,-4.6259,-4.6262,-4.6264,-4.6266,0,0,0,0,0,0,0,-4.6261,-4.6269,-4.6365,-4.6305,-4.6298,-4.6265,-4.6264,-4.6335,-4.6288,-4.6254,-4.6244,-4.6247,-4.6254,-4.627,-4.6274,-4.6387,-4.6259,-4.6264,-4.6267,-4.6269,-4.6619,-4.6625,0,0,0,0,0,0,-4.6267,-4.6268,-4.6364,-4.6365,-4.6264,-4.6272,-4.6271,-4.63,-4.6287,-4.628,-4.6252,-4.6241,-4.6263,-4.6268,-4.6274,-4.6444,-4.6264,-4.627,-4.6273,-4.6613,-4.6621,-4.6627,0,0,0,0,0,0,-4.6265,-4.6277,-4.6364,-4.6314,-4.6322,-4.628,-4.6314,-4.6303,-4.6319,-4.6285,-4.6276,-4.6277,-4.6259,-4.6266,-4.636,-4.6442,-4.6272,-4.6277,-4.6606,-4.6616,-4.6624,-4.6784,0,0,0,0,0,0,-4.6262,-4.6277,-4.6332,-4.6316,-4.6326,-4.645,-4.6319,-4.6308,-4.6329,-4.6315,-4.6306,-4.63,-4.6255,-4.6352,-4.6365,-4.6447,-4.6282,-4.6599,-4.661,-4.6621,-4.6771,-4.6798,-4.682,0,0,0,0,0,-4.6257,-4.6376,-4.6335,-4.6348,-4.6393,-4.6455,-4.646,-4.6407,-4.6336,-4.6391,-4.6369,-4.63,-4.6431,-4.6363,-4.6376,-4.6461,-4.6593,-4.6607,-4.662,-4.6761,-4.6792,-4.6819,0,0,0,0,0,0,-4.6403,-4.6373,-4.6327,-4.6445,-4.6454,-4.6432,-4.6499,-4.6442,-4.6471,-4.6456,-4.6389,-4.6388,-4.6493,-4.6485,-4.641,-4.6601,-4.65,-4.6517,-4.6602,-4.6632,-4.6656,-4.6656,-4.6286,0,0,0,0,0,-4.6449,-4.6501,-4.6472,-4.6579,-4.6586,-4.6542,-4.6567,-4.6525,-4.6531,-4.6534,-4.6519,-4.6528,-4.6571,-4.6601,-4.6638,-4.6769,-4.6766,-4.6834,-4.6859,-4.6879,-4.6894,-4.6964,-4.6994,-4.6671,-4.6671,-4.6671,0,0,-4.6544,-4.6534,-4.6571,-4.6608,-4.661,-4.6666,-4.6546,-4.661,-4.6652,-4.6544,-4.6631,-4.6621,-4.6626,-4.6739,-4.6788,-4.6737,-4.6983,-4.6896,-4.6912,-4.6917,-4.6981,-4.7012,-4.7039,-4.668,-4.6679,-4.6677,0,0,-4.6746,-4.6744,-4.6833,-4.6837,-4.6841,-4.6812,-4.6833,-4.682,-4.6809,-4.6896,-4.6817,-4.6864,-4.694,-4.6947,-4.6961,-4.7167,-4.7104,-4.7181,-4.7308,-4.7377,-4.7402,-4.7425,-4.7499,-4.7526,-4.7196,-4.7197,-4.7197,0,-4.6864,-4.6945,-4.6886,-4.6956,-4.6975,-4.688,-4.6969,-4.6976,-4.6993,-4.7008,-4.695,-4.7043,-4.704,-4.7154,-4.7205,-4.7218,-4.7241,-4.7182,-4.7403,-4.7425,-4.7445,-4.7515,-4.7543,-4.7206,-4.7205,-4.7204,-4.7203,0,-4.709,-4.7148,-4.722,-4.7239,-4.7265,-4.7345,-4.7297,-4.7331,-4.7288,-4.7264,-4.7354,-4.7347,-4.7382,-4.7405,-4.7363,-4.7514,-4.7482,-4.7415,-4.7312,-4.7486,-4.7551,-4.7577,-4.7219,-4.7216,-4.7213,-4.7211,0,0,-4.7385,-4.737,-4.7397,-4.7405,-4.7403,-4.7446,-4.7522,-4.7556,-4.7587,-4.7602,-4.7664,-4.773,-4.7668,-4.7684,-4.7641,-4.7702,-4.7867,-4.7627,-4.7626,-4.7673,-4.8034,-4.8085,-4.8117,-4.7825,-4.783,-4.7834,-4.8034,0,-4.7582,-4.7711,-4.7659,-4.7792,-4.7845,-4.7756,-4.7822,-4.7828,-4.7809,-4.7851,-4.7828,-4.7877,-4.7791,-4.78,-4.7856,-4.7835,-4.7938,-4.782,-4.7883,-4.7886,-4.7885,-4.8151,-4.8205,-4.8394,-4.8058,-4.8063,-4.8066,0,-4.783,-4.7855,-4.7994,-4.7983,-4.8003,-4.8064,-4.8091,-4.8132,-4.8138,-4.8119,-4.8137,-4.8082,-4.8155,-4.8052,-4.8153,-4.8074,-4.8096,-4.809,-4.8096,-4.8101,-4.7987,-4.8164,-4.8453,-4.8482,-4.8105,-4.8102,-4.8099,0,-4.8032,-4.8101,-4.8192,-4.8202,-4.8191,-4.8236,-4.8233,-4.8233,-4.8257,-4.8281,-4.8296,-4.8329,-4.8347,-4.8374,-4.8329,-4.8258,-4.8437,-4.833,-4.8424,-4.8426,-4.8466,-4.8465,-4.8765,-4.848,-4.848,-4.8479,-4.8478,0,-4.8258,-4.8347,-4.8283,-4.834,-4.8437,-4.8377,-4.8474,-4.8462,-4.8463,-4.8515,-4.844,-4.8491,-4.8428,-4.8473,-4.8438,-4.8528,-4.8536,-4.8524,-4.8514,-4.8532,-4.8533,-4.8546,-4.8532,-4.8487,-4.8485,-4.8483,-4.8482,0,-4.8501,-4.8462,-4.8556,-4.8539,-4.8536,-4.8609,-4.8593,-4.8645,-4.862,-4.8688,-4.8701,-4.8662,-4.8712,-4.8669,-4.8717,-4.8693,-4.8813,-4.8783,-4.8811,-4.8804,-4.8901,-4.8893,-4.922,-4.9261,-4.8949,-4.8952,-4.8955,0,-4.8648,-4.8714,-4.8704,-4.8734,-4.8737,-4.8786,-4.8811,-4.8754,-4.8783,-4.8794,-4.8845,-4.8889,-4.892,-4.9004,-4.898,-4.9016,-4.8988,-4.91,-4.8993,-4.9009,-4.8991,-4.8988,-4.8995,-4.9122,-4.9126,-4.9129,-4.9132,0,-4.8915,-4.8892,-4.893,-4.8963,-4.8994,-4.9016,-4.9033,-4.9062,-4.9004,-4.904,-4.909,-4.9115,-4.9164,-4.9208,-4.9237,-4.9234,-4.9175,-4.9165,-4.9189,-4.9209,-4.9223,-4.9217,-4.8872,-4.9158,-4.9156,-4.9154,-4.9152,-4.9151,-4.9115,-4.917,-4.9171,-4.9217,-4.9223,-4.924,-4.9289,-4.927,-4.9311,-4.9346,-4.931,-4.9371,-4.9375,-4.9408,-4.9413,-4.946,-4.9413,-4.9448,-4.9456,-4.9466,-4.9481,-4.9215,-4.9465,-4.9464,-4.9463,-4.9462,-4.9462,0,-4.9378,-4.9375,-4.9417,-4.9443,-4.9479,-4.9418,-4.9434,-4.9468,-4.9522,-4.9531,-4.9564,-4.9622,-4.9665,-4.9645,-4.9682,-4.9724,-4.9697,-4.9736,-4.9732,-4.9733,-4.952,-4.9496,-4.9756,-4.9756,-4.9756,-4.9756,-4.9756,-4.9756,-4.9519,-4.9609,-4.9587,-4.968,-4.9676,-4.9735,-4.9749,-4.9765,-4.9772,-4.984,-4.9875,-4.9862,-4.9859,-4.9896,-4.9933,-4.9925,-4.9943,-4.9992,-4.9976,-4.9777,-4.9748,-4.972,-4.9697,-4.9996,-4.9997,-5.0185,-5.0186,-5.0188]},{"header":{"parameterUnit":"m.s-1","parameterCategory":1,"la1":30.2991,"la2":30.254,"lo1":-89.0895,"lo2":-89.0444,"dy":0.0017,"dx":0.0017,"nx":28,"ny":28,"refTime":"2023-09-28T09:00:00:Z","depth":0,"parameterNumber":3,"parameterNumberName":"V-component_of_WINDS"},"data":[0,0,0,0,0,0,0,0,0,0,0,0,0,0,0,0,0,0,0,0,0,0,0,0,0,0,0,0,0,0,0,0,0,0,0,0,0,0,0,0,0,0,0,0,0,0,0,0,0,0,0,0,0,0,0,0,0,0,-3.4699,-3.4699,0,-3.4728,-3.4728,-3.4728,-3.4707,-3.4707,-3.4706,-3.4705,-3.4733,-3.4735,-3.4736,0,0,0,0,0,0,0,0,0,0,0,0,0,-3.4624,-3.4626,-3.4699,-3.4699,-3.47,-3.4727,-3.4728,-3.4728,-3.4708,-3.4707,-3.4705,-3.4704,-3.4733,-3.4735,-3.4736,0,0,0,0,0,0,0,0,0,0,0,0,0,-3.4655,-3.4626,-3.4699,-3.4693,-3.4693,-3.4727,-3.4728,-3.4728,-3.4708,-3.4707,-3.4705,-3.4704,-3.4732,-3.4734,-3.4737,-3.4779,0,0,-3.4744,-3.4745,0,0,0,0,0,0,0,0,-3.4653,-3.4658,-3.4693,-3.4693,-3.4693,-3.4713,-3.4712,-3.4745,-3.4708,-3.4702,-3.4705,-3.4703,-3.4727,-3.473,-3.4738,-3.478,-3.4781,-3.4744,-3.4746,-3.4747,-3.4747,0,0,0,0,0,0,0,-3.4651,-3.4657,-3.471,-3.4694,-3.4694,-3.4688,-3.4691,-3.4718,-3.4722,-3.4702,-3.4701,-3.4705,-3.4727,-3.4736,-3.4739,-3.4782,-3.4744,-3.4746,-3.4748,-3.4749,-3.4856,-3.4858,0,0,0,0,0,0,-3.465,-3.4655,-3.4709,-3.4711,-3.467,-3.469,-3.4693,-3.4708,-3.4722,-3.4722,-3.4706,-3.4704,-3.4733,-3.4736,-3.474,-3.4788,-3.4747,-3.4749,-3.475,-3.4855,-3.4857,-3.4858,0,0,0,0,0,0,-3.4648,-3.4655,-3.4708,-3.4683,-3.4689,-3.4693,-3.4709,-3.4709,-3.4718,-3.4724,-3.4725,-3.4715,-3.4732,-3.4736,-3.4769,-3.4788,-3.475,-3.4752,-3.4853,-3.4855,-3.4857,-3.4885,0,0,0,0,0,0,-3.4646,-3.4655,-3.4672,-3.4683,-3.469,-3.4737,-3.471,-3.4711,-3.4722,-3.472,-3.4733,-3.4733,-3.4731,-3.4765,-3.4771,-3.4791,-3.4754,-3.4851,-3.4854,-3.4857,-3.4883,-3.4888,-3.4893,0,0,0,0,0,-3.4644,-3.4679,-3.4673,-3.4679,-3.4712,-3.4739,-3.4743,-3.474,-3.4724,-3.474,-3.4744,-3.4733,-3.4786,-3.4769,-3.4775,-3.4796,-3.485,-3.4853,-3.4856,-3.488,-3.4887,-3.4893,0,0,0,0,0,0,-3.467,-3.468,-3.4673,-3.4714,-3.4725,-3.4735,-3.4756,-3.4747,-3.4764,-3.4761,-3.4756,-3.4759,-3.4792,-3.4798,-3.4778,-3.4836,-3.4815,-3.482,-3.4831,-3.4838,-3.4843,-3.484,-3.4756,0,0,0,0,0,-3.468,-3.4702,-3.471,-3.4744,-3.475,-3.4752,-3.4764,-3.476,-3.4772,-3.4777,-3.4783,-3.4795,-3.4813,-3.4826,-3.4844,-3.4884,-3.4885,-3.4901,-3.4906,-3.491,-3.4914,-3.4933,-3.4939,-3.4869,-3.4869,-3.4868,0,0,-3.4702,-3.471,-3.4725,-3.475,-3.4758,-3.4779,-3.4757,-3.4781,-3.4796,-3.4781,-3.4811,-3.4816,-3.4828,-3.4863,-3.4879,-3.4869,-3.4934,-3.4915,-3.4918,-3.4919,-3.4937,-3.4943,-3.4949,-3.4871,-3.487,-3.487,0,0,-3.4752,-3.4762,-3.479,-3.4799,-3.4812,-3.4812,-3.4819,-3.483,-3.4832,-3.4862,-3.485,-3.4868,-3.4902,-3.491,-3.4919,-3.4969,-3.4959,-3.4975,-3.5002,-3.502,-3.5025,-3.503,-3.5046,-3.5052,-3.4979,-3.4979,-3.4979,0,-3.4777,-3.481,-3.4806,-3.483,-3.484,-3.4827,-3.4854,-3.4863,-3.4881,-3.4888,-3.4877,-3.4916,-3.4924,-3.496,-3.4972,-3.498,-3.4986,-3.4973,-3.5025,-3.503,-3.5034,-3.5049,-3.5056,-3.4981,-3.4981,-3.4981,-3.498,0,-3.4839,-3.4861,-3.4882,-3.4899,-3.4912,-3.4938,-3.4937,-3.495,-3.4945,-3.4946,-3.4975,-3.4984,-3.5002,-3.501,-3.5006,-3.5045,-3.5038,-3.5026,-3.5004,-3.5043,-3.5057,-3.5063,-3.4983,-3.4983,-3.4982,-3.4982,0,0,-3.4907,-3.492,-3.4927,-3.4933,-3.4946,-3.4963,-3.4987,-3.5004,-3.5015,-3.5028,-3.5046,-3.5074,-3.5062,-3.5072,-3.5068,-3.5084,-3.5121,-3.507,-3.507,-3.5077,-3.5161,-3.5169,-3.5176,-3.5114,-3.5115,-3.5116,-3.5159,0,-3.4956,-3.4998,-3.4994,-3.5034,-3.5052,-3.5039,-3.506,-3.5069,-3.507,-3.5086,-3.5087,-3.5106,-3.509,-3.5096,-3.5111,-3.5113,-3.5137,-3.511,-3.513,-3.5131,-3.5126,-3.5183,-3.5192,-3.5233,-3.5165,-3.5166,-3.5167,0,-3.5019,-3.5032,-3.5074,-3.508,-3.5088,-3.5107,-3.5121,-3.5137,-3.5146,-3.5146,-3.5156,-3.5149,-3.5171,-3.515,-3.518,-3.5162,-3.517,-3.5172,-3.5173,-3.5174,-3.515,-3.5184,-3.5246,-3.5251,-3.5176,-3.5175,-3.5174,0,-3.5061,-3.509,-3.5118,-3.5124,-3.5133,-3.5146,-3.5151,-3.5159,-3.5168,-3.5181,-3.5187,-3.5202,-3.521,-3.5221,-3.5217,-3.5203,-3.5248,-3.5227,-3.5247,-3.5247,-3.5256,-3.5255,-3.5318,-3.5264,-3.5264,-3.5264,-3.5264,0,-3.5115,-3.5141,-3.5136,-3.5153,-3.518,-3.5175,-3.5202,-3.5204,-3.5211,-3.5227,-3.5217,-3.5232,-3.5228,-3.5242,-3.524,-3.5264,-3.5268,-3.5267,-3.5266,-3.5267,-3.5267,-3.5271,-3.5268,-3.5265,-3.5265,-3.5265,-3.5264,0,-3.5167,-3.5166,-3.5194,-3.52,-3.5202,-3.5222,-3.5226,-3.5241,-3.5241,-3.5262,-3.5266,-3.5266,-3.5283,-3.528,-3.5299,-3.5297,-3.5327,-3.5323,-3.5323,-3.5322,-3.5341,-3.5338,-3.5408,-3.5415,-3.5358,-3.5359,-3.5359,0,-3.5201,-3.522,-3.5227,-3.5237,-3.5242,-3.5258,-3.5267,-3.5262,-3.5272,-3.5283,-3.5296,-3.5312,-3.5324,-3.5351,-3.5352,-3.5366,-3.5361,-3.5384,-3.5363,-3.5363,-3.5359,-3.5357,-3.5358,-3.5388,-3.5389,-3.5389,-3.539,0,-3.5261,-3.5258,-3.5272,-3.5285,-3.5296,-3.5307,-3.5316,-3.5324,-3.532,-3.5331,-3.5348,-3.5357,-3.5375,-3.539,-3.5402,-3.5406,-3.5396,-3.5396,-3.5401,-3.5402,-3.54,-3.5399,-3.5333,-3.5395,-3.5394,-3.5394,-3.5393,-3.5393,-3.5303,-3.5318,-3.5324,-3.5339,-3.5345,-3.5354,-3.5367,-3.5368,-3.5382,-3.5396,-3.5392,-3.541,-3.5416,-3.5432,-3.5437,-3.545,-3.5442,-3.5449,-3.5451,-3.5452,-3.5454,-3.54,-3.5453,-3.5453,-3.5453,-3.5452,-3.5452,0,-3.536,-3.5363,-3.5377,-3.5389,-3.54,-3.539,-3.5399,-3.5409,-3.5425,-3.5432,-3.5443,-3.5461,-3.5475,-3.5476,-3.5489,-3.5499,-3.5495,-3.5503,-3.5501,-3.5501,-3.5462,-3.5455,-3.5506,-3.5506,-3.5506,-3.5506,-3.5506,-3.5506,-3.5391,-3.5414,-3.5412,-3.5438,-3.5441,-3.5458,-3.5464,-3.547,-3.5476,-3.5495,-3.5507,-3.5507,-3.5512,-3.5524,-3.5536,-3.5536,-3.554,-3.5549,-3.5547,-3.551,-3.5505,-3.5499,-3.5493,-3.5551,-3.5551,-3.5586,-3.5586,-3.5586]}]]